Time,TemperatureF,DewpointF,PressureIn,WindDirection,WindDirectionDegrees,WindSpeedMPH,WindSpeedGustMPH,Humidity,HourlyPrecipIn,Conditions,Clouds,dailyrainin,SoftwareType,DateUTC
2013-09-07 00:01:00,54.9,51.1,30.09,ESE,113,0.0,1.2,87,0.00,,,0.00,WeatherDisplay:10.37,2013-09-07 04:01:00,
2013-09-07 00:06:00,54.9,50.8,30.09,ESE,113,0.0,1.2,86,0.00,,,0.00,WeatherDisplay:10.37,2013-09-07 04:06:00,
2013-09-07 00:11:00,54.8,50.7,30.08,ESE,113,0.0,1.2,86,0.00,,,0.00,WeatherDisplay:10.37,2013-09-07 04:11:00,
2013-09-07 00:16:00,54.6,50.5,30.08,ESE,113,0.0,1.2,86,0.00,,,0.00,WeatherDisplay:10.37,2013-09-07 04:16:00,
2013-09-07 00:21:00,54.6,50.8,30.08,SE,128,0.0,2.3,87,0.00,,,0.00,WeatherDisplay:10.37,2013-09-07 04:21:00,
2013-09-07 00:26:00,54.7,50.6,30.08,ESE,107,0.0,2.3,86,0.00,,,0.00,WeatherDisplay:10.37,2013-09-07 04:26:00,
2013-09-07 00:31:00,54.7,50.6,30.08,ESE,107,0.0,2.3,86,0.00,,,0.00,WeatherDisplay:10.37,2013-09-07 04:31:00,
2013-09-07 00:36:00,54.7,50.6,30.08,ESE,108,0.0,2.3,86,0.00,,,0.00,WeatherDisplay:10.37,2013-09-07 04:36:00,
2013-09-07 00:41:00,54.8,50.7,30.08,ESE,108,0.0,2.3,86,0.00,,,0.00,WeatherDisplay:10.37,2013-09-07 04:41:00,
2013-09-07 00:46:00,54.7,50.6,30.08,ESE,107,0.0,2.3,86,0.00,,,0.00,WeatherDisplay:10.37,2013-09-07 04:46:00,
2013-09-07 00:51:00,54.6,50.8,30.08,ESE,107,0.0,2.3,87,0.00,,,0.00,WeatherDisplay:10.37,2013-09-07 04:51:00,
2013-09-07 00:56:00,54.7,50.9,30.08,ESE,107,0.0,2.3,87,0.00,,,0.00,WeatherDisplay:10.37,2013-09-07 04:56:00,
2013-09-07 01:01:00,54.9,50.8,30.08,SE,132,0.1,2.3,86,0.00,,,0.00,WeatherDisplay:10.37,2013-09-07 05:01:00,
2013-09-07 01:06:00,55.1,51.0,30.08,SE,132,0.0,2.3,86,0.00,,,0.00,WeatherDisplay:10.37,2013-09-07 05:06:00,
2013-09-07 01:11:00,55.3,51.2,30.08,SE,142,0.0,2.3,86,0.00,,,0.00,WeatherDisplay:10.37,2013-09-07 05:11:00,
2013-09-07 01:16:00,55.5,51.1,30.08,ESE,113,0.0,2.3,85,0.00,,,0.00,WeatherDisplay:10.37,2013-09-07 05:16:00,
2013-09-07 01:21:00,55.6,51.2,30.08,ESE,113,0.0,2.3,85,0.00,,,0.00,WeatherDisplay:10.37,2013-09-07 05:21:00,
2013-09-07 01:26:00,55.5,51.1,30.08,ESE,103,0.4,2.3,85,0.00,,,0.00,WeatherDisplay:10.37,2013-09-07 05:26:00,
2013-09-07 01:31:00,55.5,51.1,30.08,ESE,107,0.0,2.3,85,0.00,,,0.00,WeatherDisplay:10.37,2013-09-07 05:31:00,
2013-09-07 01:36:00,55.4,51.0,30.07,South,169,0.0,2.3,85,0.00,,,0.00,WeatherDisplay:10.37,2013-09-07 05:36:00,
2013-09-07 01:41:00,55.3,50.9,30.08,NW,322,0.1,3.5,85,0.00,,,0.00,WeatherDisplay:10.37,2013-09-07 05:41:00,
2013-09-07 01:46:00,55.3,51.2,30.07,SSE,155,0.2,3.5,86,0.00,,,0.00,WeatherDisplay:10.37,2013-09-07 05:46:00,
2013-09-07 01:51:00,55.3,51.2,30.07,West,278,0.0,3.5,86,0.00,,,0.00,WeatherDisplay:10.37,2013-09-07 05:51:00,
2013-09-07 01:56:00,55.3,51.2,30.07,West,278,0.0,3.5,86,0.00,,,0.00,WeatherDisplay:10.37,2013-09-07 05:56:00,
2013-09-07 02:01:00,55.1,51.0,30.06,WSW,242,0.2,3.5,86,0.00,,,0.00,WeatherDisplay:10.37,2013-09-07 06:01:00,
2013-09-07 02:06:00,55.1,51.3,30.06,NW,314,0.3,3.5,87,0.00,,,0.00,WeatherDisplay:10.37,2013-09-07 06:06:00,
2013-09-07 02:11:00,55.0,51.2,30.06,West,259,0.3,3.5,87,0.00,,,0.00,WeatherDisplay:10.37,2013-09-07 06:11:00,
2013-09-07 02:16:00,54.8,51.0,30.06,SSW,208,0.0,3.5,87,0.00,,,0.00,WeatherDisplay:10.37,2013-09-07 06:16:00,
2013-09-07 02:21:00,54.7,50.9,30.06,ESE,119,0.0,3.5,87,0.00,,,0.00,WeatherDisplay:10.37,2013-09-07 06:21:00,
2013-09-07 02:26:00,54.5,50.7,30.06,ESE,103,0.0,3.5,87,0.00,,,0.00,WeatherDisplay:10.37,2013-09-07 06:26:00,
2013-09-07 02:31:00,54.5,50.7,30.07,ESE,103,0.0,3.5,87,0.00,,,0.00,WeatherDisplay:10.37,2013-09-07 06:31:00,
2013-09-07 02:36:00,54.5,51.0,30.06,East,101,0.0,3.5,88,0.00,,,0.00,WeatherDisplay:10.37,2013-09-07 06:36:00,
2013-09-07 02:41:00,54.5,50.7,30.07,ESE,103,0.0,3.5,87,0.00,,,0.00,WeatherDisplay:10.37,2013-09-07 06:41:00,
2013-09-07 02:46:00,54.5,50.7,30.07,ESE,103,0.0,3.5,87,0.00,,,0.00,WeatherDisplay:10.37,2013-09-07 06:46:00,
2013-09-07 02:51:00,54.6,50.8,30.06,ESE,122,0.0,3.5,87,0.00,,,0.00,WeatherDisplay:10.37,2013-09-07 06:51:00,
2013-09-07 02:56:00,54.6,50.8,30.06,ESE,122,0.0,3.5,87,0.00,,,0.00,WeatherDisplay:10.37,2013-09-07 06:56:00,
2013-09-07 03:01:00,54.7,50.9,30.06,SSE,148,2.3,3.5,87,0.00,,,0.00,WeatherDisplay:10.37,2013-09-07 07:01:00,
2013-09-07 03:06:00,54.9,50.8,30.06,ESE,120,0.0,3.5,86,0.00,,,0.00,WeatherDisplay:10.37,2013-09-07 07:06:00,
2013-09-07 03:11:00,54.9,50.8,30.05,ESE,116,0.0,3.5,86,0.00,,,0.00,WeatherDisplay:10.37,2013-09-07 07:11:00,
2013-09-07 03:16:00,54.8,50.7,30.06,SE,124,0.0,3.5,86,0.00,,,0.00,WeatherDisplay:10.37,2013-09-07 07:16:00,
2013-09-07 03:21:00,54.7,50.3,30.06,ESE,118,0.1,3.5,85,0.00,,,0.00,WeatherDisplay:10.37,2013-09-07 07:21:00,
2013-09-07 03:26:00,54.7,50.6,30.06,ESE,118,0.0,3.5,86,0.00,,,0.00,WeatherDisplay:10.37,2013-09-07 07:26:00,
2013-09-07 03:31:00,54.6,50.2,30.05,ESE,118,0.5,3.5,85,0.00,,,0.00,WeatherDisplay:10.37,2013-09-07 07:31:00,
2013-09-07 03:36:00,54.7,50.3,30.05,ESE,115,0.0,3.5,85,0.00,,,0.00,WeatherDisplay:10.37,2013-09-07 07:36:00,
2013-09-07 03:41:00,54.7,50.3,30.05,SE,136,0.3,3.5,85,0.00,,,0.00,WeatherDisplay:10.37,2013-09-07 07:41:00,
2013-09-07 03:46:00,54.6,50.2,30.05,SE,125,0.0,3.5,85,0.00,,,0.00,WeatherDisplay:10.37,2013-09-07 07:46:00,
2013-09-07 03:51:00,54.6,50.2,30.05,ESE,106,0.0,3.5,85,0.00,,,0.00,WeatherDisplay:10.37,2013-09-07 07:51:00,
2013-09-07 03:56:00,54.6,50.2,30.05,East,96,0.1,3.5,85,0.00,,,0.00,WeatherDisplay:10.37,2013-09-07 07:56:00,
2013-09-07 04:01:00,54.6,50.2,30.05,East,96,0.0,3.5,85,0.00,,,0.00,WeatherDisplay:10.37,2013-09-07 08:01:00,
2013-09-07 04:06:00,54.5,50.1,30.05,East,96,0.0,3.5,85,0.00,,,0.00,WeatherDisplay:10.37,2013-09-07 08:06:00,
2013-09-07 04:11:00,54.3,50.2,30.05,East,96,0.0,3.5,86,0.00,,,0.00,WeatherDisplay:10.37,2013-09-07 08:11:00,
2013-09-07 04:16:00,54.1,50.0,30.05,East,96,0.0,3.5,86,0.00,,,0.00,WeatherDisplay:10.37,2013-09-07 08:16:00,
2013-09-07 04:21:00,53.9,50.1,30.05,East,96,0.0,3.5,87,0.00,,,0.00,WeatherDisplay:10.37,2013-09-07 08:21:00,
2013-09-07 04:26:00,53.9,50.1,30.05,East,96,0.0,3.5,87,0.00,,,0.00,WeatherDisplay:10.37,2013-09-07 08:26:00,
2013-09-07 04:31:00,53.7,49.9,30.05,East,96,0.1,3.5,87,0.00,,,0.00,WeatherDisplay:10.37,2013-09-07 08:31:00,
2013-09-07 04:36:00,53.5,49.7,30.04,SE,134,0.0,3.5,87,0.00,,,0.00,WeatherDisplay:10.37,2013-09-07 08:36:00,
2013-09-07 04:41:00,53.4,49.9,30.04,SE,126,0.0,3.5,88,0.00,,,0.00,WeatherDisplay:10.37,2013-09-07 08:41:00,
2013-09-07 04:46:00,53.3,49.5,30.04,East,89,0.1,3.5,87,0.00,,,0.00,WeatherDisplay:10.37,2013-09-07 08:46:00,
2013-09-07 04:51:00,53.2,49.4,30.04,NW,308,0.2,3.5,87,0.00,,,0.00,WeatherDisplay:10.37,2013-09-07 08:51:00,
2013-09-07 04:56:00,53.3,49.5,30.04,NW,308,0.0,3.5,87,0.00,,,0.00,WeatherDisplay:10.37,2013-09-07 08:56:00,
2013-09-07 05:01:00,53.2,49.1,30.04,NW,316,0.0,3.5,86,0.00,,,0.00,WeatherDisplay:10.37,2013-09-07 09:01:00,
2013-09-07 05:06:00,53.2,49.1,30.04,NW,316,0.0,3.5,86,0.00,,,0.00,WeatherDisplay:10.37,2013-09-07 09:06:00,
2013-09-07 05:11:00,53.1,49.0,30.04,NW,316,0.0,3.5,86,0.00,,,0.00,WeatherDisplay:10.37,2013-09-07 09:11:00,
2013-09-07 05:16:00,53.1,49.0,30.03,NW,316,0.0,3.5,86,0.00,,,0.00,WeatherDisplay:10.37,2013-09-07 09:16:00,
2013-09-07 05:21:00,53.0,48.6,30.03,NW,316,0.0,3.5,85,0.00,,,0.00,WeatherDisplay:10.37,2013-09-07 09:21:00,
2013-09-07 05:26:00,53.1,48.7,30.04,ESE,119,0.0,3.5,85,0.00,,,0.00,WeatherDisplay:10.37,2013-09-07 09:26:00,
2013-09-07 05:31:00,53.2,49.1,30.05,ESE,118,0.0,3.5,86,0.00,,,0.00,WeatherDisplay:10.37,2013-09-07 09:31:00,
2013-09-07 05:36:00,53.2,49.1,30.04,NNE,27,0.0,3.5,86,0.00,,,0.00,WeatherDisplay:10.37,2013-09-07 09:36:00,
2013-09-07 05:41:00,53.1,48.7,30.04,NNE,29,0.0,3.5,85,0.00,,,0.00,WeatherDisplay:10.37,2013-09-07 09:41:00,
2013-09-07 05:46:00,53.1,49.0,30.04,NNE,29,0.0,3.5,86,0.00,,,0.00,WeatherDisplay:10.37,2013-09-07 09:46:00,
2013-09-07 05:51:00,53.2,48.8,30.04,SSE,152,0.0,3.5,85,0.00,,,0.00,WeatherDisplay:10.37,2013-09-07 09:51:00,
2013-09-07 05:56:00,53.4,49.0,30.04,SSE,153,0.0,3.5,85,0.00,,,0.00,WeatherDisplay:10.37,2013-09-07 09:56:00,
2013-09-07 06:01:00,53.5,49.1,30.03,SE,129,0.0,3.5,85,0.00,,,0.00,WeatherDisplay:10.37,2013-09-07 10:01:00,
2013-09-07 06:06:00,53.6,48.9,30.03,North,5,0.0,3.5,84,0.00,,,0.00,WeatherDisplay:10.37,2013-09-07 10:06:00,
2013-09-07 06:11:00,53.9,48.9,30.03,ESE,121,0.0,3.5,83,0.00,,,0.00,WeatherDisplay:10.37,2013-09-07 10:11:00,
2013-09-07 06:16:00,54.2,49.1,30.03,East,80,0.0,3.5,83,0.00,,,0.00,WeatherDisplay:10.37,2013-09-07 10:16:00,
2013-09-07 06:21:00,54.4,49.0,30.03,WSW,243,1.2,3.5,82,0.00,,,0.00,WeatherDisplay:10.37,2013-09-07 10:21:00,
2013-09-07 06:26:00,54.7,49.0,30.03,WSW,242,0.0,3.5,81,0.00,,,0.00,WeatherDisplay:10.37,2013-09-07 10:26:00,
2013-09-07 06:31:00,54.8,49.1,30.03,ESE,118,0.6,3.5,81,0.00,,,0.00,WeatherDisplay:10.37,2013-09-07 10:31:00,
2013-09-07 06:36:00,54.9,49.2,30.03,ESE,118,0.0,3.5,81,0.00,,,0.00,WeatherDisplay:10.37,2013-09-07 10:36:00,
2013-09-07 06:41:00,54.9,49.2,30.03,ESE,110,0.0,3.5,81,0.00,,,0.00,WeatherDisplay:10.37,2013-09-07 10:41:00,
2013-09-07 06:46:00,54.9,49.2,30.03,ESE,103,0.0,3.5,81,0.00,,,0.00,WeatherDisplay:10.37,2013-09-07 10:46:00,
2013-09-07 06:51:00,54.9,49.5,30.03,ESE,103,0.0,3.5,82,0.00,,,0.00,WeatherDisplay:10.37,2013-09-07 10:51:00,
2013-09-07 06:56:00,54.8,49.4,30.03,ESE,103,0.0,3.5,82,0.00,,,0.00,WeatherDisplay:10.37,2013-09-07 10:56:00,
2013-09-07 07:01:00,54.8,49.4,30.03,ESE,103,0.0,3.5,82,0.00,,,0.00,WeatherDisplay:10.37,2013-09-07 11:01:00,
2013-09-07 07:06:00,54.8,49.4,30.03,East,101,0.0,3.5,82,0.00,,,0.00,WeatherDisplay:10.37,2013-09-07 11:06:00,
2013-09-07 07:11:00,54.9,49.5,30.03,East,101,0.0,3.5,82,0.00,,,0.00,WeatherDisplay:10.37,2013-09-07 11:11:00,
2013-09-07 07:16:00,54.8,49.4,30.03,ESE,102,0.0,3.5,82,0.00,,,0.00,WeatherDisplay:10.37,2013-09-07 11:16:00,
2013-09-07 07:21:00,54.8,49.4,30.03,East,101,0.0,3.5,82,0.00,,,0.00,WeatherDisplay:10.37,2013-09-07 11:21:00,
2013-09-07 07:26:00,54.7,49.6,30.03,ESE,102,0.0,3.5,83,0.00,,,0.00,WeatherDisplay:10.37,2013-09-07 11:26:00,
2013-09-07 07:31:00,54.7,50.0,30.03,ESE,102,0.0,3.5,84,0.00,,,0.00,WeatherDisplay:10.37,2013-09-07 11:31:00,
2013-09-07 07:36:00,54.8,49.7,30.03,East,101,0.0,3.5,83,0.00,,,0.00,WeatherDisplay:10.37,2013-09-07 11:36:00,
2013-09-07 07:41:00,55.0,50.3,30.03,ESE,102,0.0,3.5,84,0.00,,,0.00,WeatherDisplay:10.37,2013-09-07 11:41:00,
2013-09-07 07:46:00,55.4,50.6,30.03,WNW,287,0.0,3.5,84,0.00,,,0.00,WeatherDisplay:10.37,2013-09-07 11:46:00,
2013-09-07 07:51:00,55.8,50.4,30.03,SW,229,0.0,3.5,82,0.00,,,0.00,WeatherDisplay:10.37,2013-09-07 11:51:00,
2013-09-07 07:56:00,56.1,50.3,30.03,WSW,243,0.0,3.5,81,0.00,,,0.00,WeatherDisplay:10.37,2013-09-07 11:56:00,
2013-09-07 08:01:00,56.5,50.4,30.03,SW,225,0.0,3.5,80,0.00,,,0.00,WeatherDisplay:10.37,2013-09-07 12:01:00,
2013-09-07 08:06:00,56.8,50.4,30.03,SW,225,0.0,3.5,79,0.00,,,0.00,WeatherDisplay:10.37,2013-09-07 12:06:00,
2013-09-07 08:11:00,57.0,50.2,30.03,West,278,0.0,3.5,78,0.00,,,0.00,WeatherDisplay:10.37,2013-09-07 12:11:00,
2013-09-07 08:16:00,57.2,50.1,30.03,West,266,0.9,3.5,77,0.00,,,0.00,WeatherDisplay:10.37,2013-09-07 12:16:00,
2013-09-07 08:21:00,57.4,50.2,30.04,WSW,238,0.0,3.5,77,0.00,,,0.00,WeatherDisplay:10.37,2013-09-07 12:21:00,
2013-09-07 08:26:00,57.6,50.4,30.03,SW,226,0.0,3.5,77,0.00,,,0.00,WeatherDisplay:10.37,2013-09-07 12:26:00,
2013-09-07 08:31:00,57.7,50.9,30.03,SW,218,0.0,3.5,78,0.00,,,0.00,WeatherDisplay:10.37,2013-09-07 12:31:00,
2013-09-07 08:36:00,57.9,50.4,30.03,WSW,257,0.5,3.5,76,0.00,,,0.00,WeatherDisplay:10.37,2013-09-07 12:36:00,
2013-09-07 08:41:00,58.2,51.0,30.02,ESE,110,0.0,3.5,77,0.00,,,0.00,WeatherDisplay:10.37,2013-09-07 12:41:00,
2013-09-07 08:46:00,58.5,50.6,30.02,West,276,1.3,3.5,75,0.00,,,0.00,WeatherDisplay:10.37,2013-09-07 12:46:00,
2013-09-07 08:51:00,58.8,51.2,30.02,WSW,239,0.6,3.5,76,0.00,,,0.00,WeatherDisplay:10.37,2013-09-07 12:51:00,
2013-09-07 08:56:00,59.1,50.8,30.02,WSW,257,2.1,4.0,74,0.00,,,0.00,WeatherDisplay:10.37,2013-09-07 12:56:00,
2013-09-07 09:01:00,59.3,51.0,30.02,WSW,245,0.8,4.0,74,0.00,,,0.00,WeatherDisplay:10.37,2013-09-07 13:01:00,
2013-09-07 09:06:00,59.5,51.2,30.02,SW,236,0.2,4.0,74,0.00,,,0.00,WeatherDisplay:10.37,2013-09-07 13:06:00,
2013-09-07 09:11:00,59.7,51.4,30.01,WNW,291,0.5,4.0,74,0.00,,,0.00,WeatherDisplay:10.37,2013-09-07 13:11:00,
2013-09-07 09:16:00,60.1,51.8,30.01,West,267,0.2,4.0,74,0.00,,,0.00,WeatherDisplay:10.37,2013-09-07 13:16:00,
2013-09-07 09:21:00,60.2,51.9,30.02,West,260,0.0,4.0,74,0.00,,,0.00,WeatherDisplay:10.37,2013-09-07 13:21:00,
2013-09-07 09:26:00,60.3,52.3,30.02,SW,235,0.0,4.0,75,0.00,,,0.00,WeatherDisplay:10.37,2013-09-07 13:26:00,
2013-09-07 09:31:00,60.4,52.8,30.02,SW,232,0.0,4.0,76,0.00,,,0.00,WeatherDisplay:10.37,2013-09-07 13:31:00,
2013-09-07 09:36:00,60.5,52.2,30.02,SW,232,0.0,4.0,74,0.00,,,0.00,WeatherDisplay:10.37,2013-09-07 13:36:00,
2013-09-07 09:41:00,60.8,52.1,30.01,SW,218,0.3,4.0,73,0.00,,,0.00,WeatherDisplay:10.37,2013-09-07 13:41:00,
2013-09-07 09:46:00,60.9,52.2,30.02,West,280,0.0,4.0,73,0.00,,,0.00,WeatherDisplay:10.37,2013-09-07 13:46:00,
2013-09-07 09:51:00,61.1,52.4,30.01,ESE,108,0.0,4.0,73,0.00,,,0.00,WeatherDisplay:10.37,2013-09-07 13:51:00,
2013-09-07 09:56:00,61.1,52.4,30.02,SW,222,0.0,4.0,73,0.00,,,0.00,WeatherDisplay:10.37,2013-09-07 13:56:00,
2013-09-07 10:01:00,61.2,52.5,30.01,SSW,193,0.0,4.0,73,0.00,,,0.00,WeatherDisplay:10.37,2013-09-07 14:01:00,
2013-09-07 10:06:00,61.3,52.9,30.02,West,259,0.4,4.0,74,0.00,,,0.00,WeatherDisplay:10.37,2013-09-07 14:06:00,
2013-09-07 10:11:00,61.2,52.8,30.02,SW,226,0.5,4.0,74,0.00,,,0.00,WeatherDisplay:10.37,2013-09-07 14:11:00,
2013-09-07 10:16:00,61.1,52.4,30.01,SW,232,0.0,4.0,73,0.00,,,0.00,WeatherDisplay:10.37,2013-09-07 14:16:00,
2013-09-07 10:21:00,61.0,51.9,30.02,SW,229,0.4,4.0,72,0.00,,,0.00,WeatherDisplay:10.37,2013-09-07 14:21:00,
2013-09-07 10:26:00,60.9,52.6,30.02,SW,229,0.0,4.0,74,0.00,,,0.00,WeatherDisplay:10.37,2013-09-07 14:26:00,
2013-09-07 10:31:00,60.8,52.5,30.02,SW,224,1.2,4.0,74,0.00,,,0.00,WeatherDisplay:10.37,2013-09-07 14:31:00,
2013-09-07 10:36:00,60.7,52.7,30.02,West,273,0.0,4.0,75,0.00,,,0.00,WeatherDisplay:10.37,2013-09-07 14:36:00,
2013-09-07 10:41:00,60.5,53.3,30.01,West,274,0.0,4.0,77,0.00,,,0.00,WeatherDisplay:10.37,2013-09-07 14:41:00,
2013-09-07 10:46:00,60.2,53.3,30.01,West,274,0.0,4.0,78,0.00,,,0.00,WeatherDisplay:10.37,2013-09-07 14:46:00,
2013-09-07 10:51:00,59.9,53.4,30.01,West,278,0.1,4.0,79,0.00,,,0.00,WeatherDisplay:10.37,2013-09-07 14:51:00,
2013-09-07 10:56:00,59.6,53.4,30.00,ESE,110,0.0,4.0,80,0.00,,,0.00,WeatherDisplay:10.37,2013-09-07 14:56:00,
2013-09-07 11:01:00,59.6,53.4,30.00,SE,136,0.4,4.0,80,0.00,,,0.00,WeatherDisplay:10.37,2013-09-07 15:01:00,
2013-09-07 11:06:00,59.6,53.8,30.00,ESE,113,0.3,4.0,81,0.00,,,0.00,WeatherDisplay:10.37,2013-09-07 15:06:00,
2013-09-07 11:11:00,59.7,54.2,30.00,SSE,149,0.1,4.0,82,0.00,,,0.00,WeatherDisplay:10.37,2013-09-07 15:11:00,
2013-09-07 11:16:00,59.9,54.1,30.00,SSE,160,0.0,4.0,81,0.00,,,0.00,WeatherDisplay:10.37,2013-09-07 15:16:00,
2013-09-07 11:21:00,60.2,54.3,29.99,South,187,0.0,4.0,81,0.00,,,0.00,WeatherDisplay:10.37,2013-09-07 15:21:00,
2013-09-07 11:26:00,60.4,54.5,29.99,ESE,121,0.0,4.0,81,0.00,,,0.00,WeatherDisplay:10.37,2013-09-07 15:26:00,
2013-09-07 11:31:00,60.5,54.3,29.99,ESE,103,0.3,4.0,80,0.00,,,0.00,WeatherDisplay:10.37,2013-09-07 15:31:00,
2013-09-07 11:36:00,60.6,54.4,29.99,SSE,150,0.0,4.0,80,0.01,RA,,0.01,WeatherDisplay:10.37,2013-09-07 15:36:00,
2013-09-07 11:41:00,60.7,54.5,29.99,SE,134,0.3,4.0,80,0.01,RA,,0.01,WeatherDisplay:10.37,2013-09-07 15:41:00,
2013-09-07 11:46:00,60.8,54.6,29.99,NE,49,0.5,4.0,80,0.01,,,0.01,WeatherDisplay:10.37,2013-09-07 15:46:00,
2013-09-07 11:51:00,60.9,54.7,29.99,ESE,103,0.0,4.0,80,0.01,,,0.01,WeatherDisplay:10.37,2013-09-07 15:51:00,
2013-09-07 11:56:00,61.0,54.8,29.99,SE,129,0.3,4.0,80,0.01,,,0.01,WeatherDisplay:10.37,2013-09-07 15:56:00,
2013-09-07 12:01:00,61.1,54.5,29.98,SE,124,0.3,4.0,79,0.01,,,0.01,WeatherDisplay:10.37,2013-09-07 16:01:00,
2013-09-07 12:06:00,61.2,55.3,29.98,SE,134,1.0,4.0,81,0.01,,,0.01,WeatherDisplay:10.37,2013-09-07 16:06:00,
2013-09-07 12:11:00,61.3,55.8,29.98,ESE,120,0.0,4.0,82,0.01,,,0.01,WeatherDisplay:10.37,2013-09-07 16:11:00,
2013-09-07 12:16:00,61.3,55.8,29.97,SE,140,0.0,4.0,82,0.01,,,0.02,WeatherDisplay:10.37,2013-09-07 16:16:00,
2013-09-07 12:21:00,61.3,56.1,29.97,SSE,152,1.3,4.0,83,0.02,RA,,0.02,WeatherDisplay:10.37,2013-09-07 16:21:00,
2013-09-07 12:26:00,61.2,56.0,29.96,NW,304,0.2,4.0,83,0.02,RA,,0.02,WeatherDisplay:10.37,2013-09-07 16:26:00,
2013-09-07 12:31:00,61.2,56.3,29.96,SSE,150,0.8,4.0,84,0.02,,,0.02,WeatherDisplay:10.37,2013-09-07 16:31:00,
2013-09-07 12:36:00,61.4,56.5,29.96,West,264,0.3,4.0,84,0.01,,,0.02,WeatherDisplay:10.37,2013-09-07 16:36:00,
2013-09-07 12:41:00,61.4,56.5,29.97,WSW,243,1.1,4.0,84,0.02,RA,,0.03,WeatherDisplay:10.37,2013-09-07 16:41:00,
2013-09-07 12:46:00,61.6,57.0,29.97,WSW,243,0.0,4.0,85,0.02,RA,,0.03,WeatherDisplay:10.37,2013-09-07 16:46:00,
2013-09-07 12:51:00,62.0,57.4,29.96,SW,229,0.0,4.0,85,0.02,,,0.03,WeatherDisplay:10.37,2013-09-07 16:51:00,
2013-09-07 12:56:00,62.2,57.3,29.97,West,269,0.1,4.0,84,0.02,,,0.03,WeatherDisplay:10.37,2013-09-07 16:56:00,
2013-09-07 13:01:00,62.5,57.3,29.96,SSE,165,0.1,4.0,83,0.02,,,0.03,WeatherDisplay:10.37,2013-09-07 17:01:00,
2013-09-07 13:06:00,62.8,57.2,29.96,WSW,250,0.3,4.0,82,0.02,,,0.03,WeatherDisplay:10.37,2013-09-07 17:06:00,
2013-09-07 13:11:00,63.1,57.2,29.96,ESE,113,0.4,4.0,81,0.02,,,0.03,WeatherDisplay:10.37,2013-09-07 17:11:00,
2013-09-07 13:16:00,63.3,57.4,29.96,SE,135,0.0,4.0,81,0.02,,,0.03,WeatherDisplay:10.37,2013-09-07 17:16:00,
2013-09-07 13:21:00,63.4,57.1,29.96,SE,136,0.1,4.0,80,0.01,,,0.03,WeatherDisplay:10.37,2013-09-07 17:21:00,
2013-09-07 13:26:00,63.6,57.7,29.96,SSE,163,0.0,4.0,81,0.01,,,0.03,WeatherDisplay:10.37,2013-09-07 17:26:00,
2013-09-07 13:31:00,63.7,57.8,29.96,SSW,201,0.0,4.0,81,0.01,,,0.03,WeatherDisplay:10.37,2013-09-07 17:31:00,
2013-09-07 13:36:00,63.6,57.7,29.96,West,274,0.0,4.0,81,0.01,,,0.03,WeatherDisplay:10.37,2013-09-07 17:36:00,
2013-09-07 13:41:00,63.5,57.6,29.96,North,357,0.0,4.0,81,0.00,,,0.03,WeatherDisplay:10.37,2013-09-07 17:41:00,
2013-09-07 13:46:00,63.3,57.4,29.95,SE,142,0.0,4.0,81,0.00,,,0.03,WeatherDisplay:10.37,2013-09-07 17:46:00,
2013-09-07 13:51:00,63.2,57.6,29.95,WNW,283,0.0,4.0,82,0.00,,,0.03,WeatherDisplay:10.37,2013-09-07 17:51:00,
2013-09-07 13:56:00,63.2,57.9,29.95,WNW,284,0.0,4.0,83,0.00,,,0.03,WeatherDisplay:10.37,2013-09-07 17:56:00,
2013-09-07 14:01:00,63.2,57.9,29.95,WNW,284,0.0,4.0,83,0.01,RA,,0.04,WeatherDisplay:10.37,2013-09-07 18:01:00,
2013-09-07 14:06:00,63.2,58.3,29.95,SW,222,0.0,4.0,84,0.01,RA,,0.04,WeatherDisplay:10.37,2013-09-07 18:06:00,
2013-09-07 14:11:00,63.1,58.2,29.95,SW,225,0.0,4.0,84,0.01,,,0.04,WeatherDisplay:10.37,2013-09-07 18:11:00,
2013-09-07 14:16:00,62.8,58.2,29.96,WSW,248,0.1,4.0,85,0.01,,,0.04,WeatherDisplay:10.37,2013-09-07 18:16:00,
2013-09-07 14:21:00,62.7,58.5,29.95,SSE,158,0.0,4.0,86,0.02,RA,,0.05,WeatherDisplay:10.37,2013-09-07 18:21:00,
2013-09-07 14:26:00,62.8,58.9,29.95,SSE,158,0.0,4.0,87,0.02,RA,,0.05,WeatherDisplay:10.37,2013-09-07 18:26:00,
2013-09-07 14:31:00,62.9,59.0,29.95,SSE,158,0.0,4.0,87,0.02,,,0.05,WeatherDisplay:10.37,2013-09-07 18:31:00,
2013-09-07 14:36:00,63.1,58.8,29.95,SSE,158,0.0,4.0,86,0.02,,,0.05,WeatherDisplay:10.37,2013-09-07 18:36:00,
2013-09-07 14:41:00,63.1,58.5,29.95,SSE,158,0.0,4.0,85,0.03,RA,,0.06,WeatherDisplay:10.37,2013-09-07 18:41:00,
2013-09-07 14:46:00,63.2,58.9,29.94,SSE,158,0.0,4.0,86,0.03,RA,,0.06,WeatherDisplay:10.37,2013-09-07 18:46:00,
2013-09-07 14:51:00,63.4,59.1,29.94,SSE,158,0.0,4.0,86,0.03,,,0.06,WeatherDisplay:10.37,2013-09-07 18:51:00,
2013-09-07 14:56:00,63.5,59.6,29.93,SSE,160,0.0,4.0,87,0.03,,,0.06,WeatherDisplay:10.37,2013-09-07 18:56:00,
2013-09-07 15:01:00,63.8,59.9,29.93,SSE,150,0.0,4.0,87,0.02,,,0.06,WeatherDisplay:10.37,2013-09-07 19:01:00,
2013-09-07 15:06:00,64.2,60.2,29.93,SSE,155,0.0,4.0,87,0.02,,,0.06,WeatherDisplay:10.37,2013-09-07 19:06:00,
2013-09-07 15:11:00,64.8,60.5,29.93,SW,215,0.2,4.0,86,0.02,,,0.06,WeatherDisplay:10.37,2013-09-07 19:11:00,
2013-09-07 15:16:00,65.3,60.3,29.93,South,177,0.0,4.0,84,0.02,,,0.06,WeatherDisplay:10.37,2013-09-07 19:16:00,
2013-09-07 15:21:00,65.4,60.1,29.93,SSW,202,0.1,4.0,83,0.01,,,0.06,WeatherDisplay:10.37,2013-09-07 19:21:00,
2013-09-07 15:26:00,65.5,59.5,29.92,SSE,150,0.0,4.0,81,0.01,,,0.06,WeatherDisplay:10.37,2013-09-07 19:26:00,
2013-09-07 15:31:00,65.4,59.4,29.92,South,174,0.1,4.0,81,0.01,,,0.06,WeatherDisplay:10.37,2013-09-07 19:31:00,
2013-09-07 15:36:00,65.3,59.7,29.92,SSE,155,0.9,4.0,82,0.01,,,0.06,WeatherDisplay:10.37,2013-09-07 19:36:00,
2013-09-07 15:41:00,65.3,59.7,29.91,SSE,160,0.1,4.0,82,0.00,,,0.06,WeatherDisplay:10.37,2013-09-07 19:41:00,
2013-09-07 15:46:00,65.2,59.6,29.91,ENE,71,0.2,4.0,82,0.00,,,0.06,WeatherDisplay:10.37,2013-09-07 19:46:00,
2013-09-07 15:51:00,65.2,59.6,29.91,West,277,0.5,4.0,82,0.00,,,0.06,WeatherDisplay:10.37,2013-09-07 19:51:00,
2013-09-07 15:56:00,65.1,59.5,29.91,West,259,0.0,4.0,82,0.00,,,0.06,WeatherDisplay:10.37,2013-09-07 19:56:00,
2013-09-07 16:01:00,65.1,59.8,29.91,SSW,213,0.4,4.0,83,0.00,,,0.06,WeatherDisplay:10.37,2013-09-07 20:01:00,
2013-09-07 16:06:00,65.0,59.4,29.91,WNW,284,0.0,4.0,82,0.00,,,0.06,WeatherDisplay:10.37,2013-09-07 20:06:00,
2013-09-07 16:11:00,64.9,59.3,29.92,SW,216,0.8,4.0,82,0.00,,,0.06,WeatherDisplay:10.37,2013-09-07 20:11:00,
2013-09-07 16:16:00,65.0,59.4,29.92,SW,222,0.1,4.0,82,0.00,,,0.06,WeatherDisplay:10.37,2013-09-07 20:16:00,
2013-09-07 16:21:00,65.0,59.7,29.91,SW,232,0.0,4.0,83,0.00,,,0.06,WeatherDisplay:10.37,2013-09-07 20:21:00,
2013-09-07 16:26:00,65.0,59.4,29.91,South,172,0.6,4.0,82,0.00,,,0.06,WeatherDisplay:10.37,2013-09-07 20:26:00,
2013-09-07 16:31:00,65.0,59.0,29.90,NNW,335,1.4,5.0,81,0.00,,,0.06,WeatherDisplay:10.37,2013-09-07 20:31:00,
2013-09-07 16:36:00,64.9,58.6,29.90,WSW,242,4.1,6.0,80,0.00,,,0.06,WeatherDisplay:10.37,2013-09-07 20:36:00,
2013-09-07 16:41:00,64.7,58.4,29.91,West,271,2.3,6.0,80,0.00,,,0.06,WeatherDisplay:10.37,2013-09-07 20:41:00,
2013-09-07 16:46:00,64.6,57.9,29.91,SSW,198,1.6,6.0,79,0.00,,,0.06,WeatherDisplay:10.37,2013-09-07 20:46:00,
2013-09-07 16:51:00,64.5,57.8,29.90,SW,231,2.8,6.0,79,0.00,,,0.06,WeatherDisplay:10.37,2013-09-07 20:51:00,
2013-09-07 16:56:00,64.4,58.1,29.90,SW,225,1.1,6.0,80,0.00,,,0.06,WeatherDisplay:10.37,2013-09-07 20:56:00,
2013-09-07 17:01:00,64.2,58.6,29.90,SW,231,0.2,6.0,82,0.00,,,0.06,WeatherDisplay:10.37,2013-09-07 21:01:00,
2013-09-07 17:06:00,63.9,58.0,29.89,WSW,239,1.1,6.0,81,0.00,,,0.06,WeatherDisplay:10.37,2013-09-07 21:06:00,
2013-09-07 17:11:00,63.6,58.0,29.89,SW,219,2.0,6.0,82,0.00,,,0.06,WeatherDisplay:10.37,2013-09-07 21:11:00,
2013-09-07 17:16:00,63.4,58.1,29.89,WSW,250,0.9,6.0,83,0.00,,,0.06,WeatherDisplay:10.37,2013-09-07 21:16:00,
2013-09-07 17:21:00,63.2,57.9,29.89,West,262,2.9,6.0,83,0.00,,,0.06,WeatherDisplay:10.37,2013-09-07 21:21:00,
2013-09-07 17:26:00,62.9,58.0,29.89,WSW,245,0.9,6.0,84,0.00,,,0.06,WeatherDisplay:10.37,2013-09-07 21:26:00,
2013-09-07 17:31:00,62.6,57.4,29.90,SW,218,1.6,6.0,83,0.00,,,0.06,WeatherDisplay:10.37,2013-09-07 21:31:00,
2013-09-07 17:36:00,62.3,57.4,29.89,SW,229,0.8,6.0,84,0.00,,,0.06,WeatherDisplay:10.37,2013-09-07 21:36:00,
2013-09-07 17:41:00,62.1,57.5,29.89,East,79,2.6,6.0,85,0.00,,,0.06,WeatherDisplay:10.37,2013-09-07 21:41:00,
2013-09-07 17:46:00,62.0,57.8,29.89,WSW,245,0.1,6.0,86,0.00,,,0.06,WeatherDisplay:10.37,2013-09-07 21:46:00,
2013-09-07 17:51:00,61.9,57.7,29.89,SW,228,1.8,6.0,86,0.00,,,0.06,WeatherDisplay:10.37,2013-09-07 21:51:00,
2013-09-07 17:56:00,61.8,57.6,29.89,SSW,211,0.3,6.0,86,0.00,,,0.06,WeatherDisplay:10.37,2013-09-07 21:56:00,
2013-09-07 18:01:00,61.9,57.7,29.89,West,274,1.4,6.0,86,0.00,,,0.06,WeatherDisplay:10.37,2013-09-07 22:01:00,
2013-09-07 18:06:00,61.9,58.0,29.89,SW,226,0.7,6.0,87,0.00,,,0.06,WeatherDisplay:10.37,2013-09-07 22:06:00,
2013-09-07 18:11:00,61.9,58.0,29.89,SW,226,0.0,6.0,87,0.00,,,0.06,WeatherDisplay:10.37,2013-09-07 22:11:00,
2013-09-07 18:16:00,61.9,58.0,29.89,WSW,243,0.5,6.0,87,0.00,,,0.06,WeatherDisplay:10.37,2013-09-07 22:16:00,
2013-09-07 18:21:00,61.9,58.0,29.89,SSW,212,0.9,6.0,87,0.00,,,0.06,WeatherDisplay:10.37,2013-09-07 22:21:00,
2013-09-07 18:26:00,61.9,58.3,29.89,WSW,253,0.7,6.0,88,0.00,,,0.06,WeatherDisplay:10.37,2013-09-07 22:26:00,
2013-09-07 18:31:00,61.9,58.3,29.89,SW,222,1.0,6.0,88,0.00,,,0.06,WeatherDisplay:10.37,2013-09-07 22:31:00,
2013-09-07 18:36:00,62.0,58.4,29.89,SW,216,0.1,6.0,88,0.00,,,0.06,WeatherDisplay:10.37,2013-09-07 22:36:00,
2013-09-07 18:41:00,61.9,58.3,29.89,WSW,245,0.6,6.0,88,0.00,,,0.06,WeatherDisplay:10.37,2013-09-07 22:41:00,
2013-09-07 18:46:00,61.9,58.6,29.89,SE,143,1.5,6.0,89,0.00,,,0.06,WeatherDisplay:10.37,2013-09-07 22:46:00,
2013-09-07 18:51:00,62.0,58.7,29.88,SSW,200,0.0,6.0,89,0.00,,,0.06,WeatherDisplay:10.37,2013-09-07 22:51:00,
2013-09-07 18:56:00,62.1,58.8,29.88,West,269,0.4,6.0,89,0.00,,,0.06,WeatherDisplay:10.37,2013-09-07 22:56:00,
2013-09-07 19:01:00,62.1,58.8,29.89,WSW,252,0.4,6.0,89,0.00,,,0.06,WeatherDisplay:10.37,2013-09-07 23:01:00,
2013-09-07 19:06:00,62.2,58.9,29.89,SW,226,0.0,6.0,89,0.00,,,0.06,WeatherDisplay:10.37,2013-09-07 23:06:00,
2013-09-07 19:11:00,62.3,59.0,29.89,SW,236,0.2,6.0,89,0.00,,,0.06,WeatherDisplay:10.37,2013-09-07 23:11:00,
2013-09-07 19:16:00,62.4,59.4,29.89,West,280,0.9,6.0,90,0.00,,,0.06,WeatherDisplay:10.37,2013-09-07 23:16:00,
2013-09-07 19:21:00,62.4,59.1,29.89,West,263,0.4,6.0,89,0.00,,,0.06,WeatherDisplay:10.37,2013-09-07 23:21:00,
2013-09-07 19:26:00,62.5,59.2,29.89,SW,232,1.9,6.0,89,0.00,,,0.06,WeatherDisplay:10.37,2013-09-07 23:26:00,
2013-09-07 19:31:00,62.5,59.2,29.89,SSW,206,0.3,6.0,89,0.00,,,0.06,WeatherDisplay:10.37,2013-09-07 23:31:00,
2013-09-07 19:36:00,62.5,59.5,29.89,WSW,242,0.4,6.0,90,0.00,,,0.06,WeatherDisplay:10.37,2013-09-07 23:36:00,
2013-09-07 19:41:00,62.5,59.2,29.89,SW,229,0.1,6.0,89,0.00,,,0.06,WeatherDisplay:10.37,2013-09-07 23:41:00,
2013-09-07 19:46:00,62.5,59.2,29.89,SW,232,1.8,6.0,89,0.00,,,0.06,WeatherDisplay:10.37,2013-09-07 23:46:00,
2013-09-07 19:51:00,62.6,59.3,29.89,West,261,0.0,6.0,89,0.00,,,0.06,WeatherDisplay:10.37,2013-09-07 23:51:00,
2013-09-07 19:56:00,62.6,59.3,29.89,West,259,0.2,6.0,89,0.00,,,0.06,WeatherDisplay:10.37,2013-09-07 23:56:00,
2013-09-07 20:01:00,62.6,59.3,29.89,WSW,245,0.3,6.0,89,0.00,,,0.06,WeatherDisplay:10.37,2013-09-08 00:01:00,
2013-09-07 20:06:00,62.6,59.3,29.89,West,262,0.2,6.0,89,0.00,,,0.06,WeatherDisplay:10.37,2013-09-08 00:06:00,
2013-09-07 20:11:00,62.6,59.3,29.88,West,262,0.0,6.0,89,0.00,,,0.06,WeatherDisplay:10.37,2013-09-08 00:11:00,
2013-09-07 20:16:00,62.5,59.2,29.88,South,191,0.0,6.0,89,0.00,,,0.06,WeatherDisplay:10.37,2013-09-08 00:16:00,
2013-09-07 20:21:00,62.4,59.4,29.88,SE,137,0.5,6.0,90,0.00,,,0.06,WeatherDisplay:10.37,2013-09-08 00:21:00,
2013-09-07 20:26:00,62.3,59.3,29.88,WSW,245,0.0,6.0,90,0.00,,,0.06,WeatherDisplay:10.37,2013-09-08 00:26:00,
2013-09-07 20:31:00,62.2,59.2,29.88,WSW,239,0.0,6.0,90,0.00,,,0.06,WeatherDisplay:10.37,2013-09-08 00:31:00,
2013-09-07 20:36:00,62.2,59.2,29.88,SW,236,0.0,6.0,90,0.00,,,0.06,WeatherDisplay:10.37,2013-09-08 00:36:00,
2013-09-07 20:41:00,62.2,59.2,29.89,SW,236,0.0,6.0,90,0.00,,,0.06,WeatherDisplay:10.37,2013-09-08 00:41:00,
2013-09-07 20:46:00,62.3,59.3,29.89,SW,232,2.1,6.0,90,0.00,,,0.06,WeatherDisplay:10.37,2013-09-08 00:46:00,
2013-09-07 20:51:00,62.4,59.4,29.88,SW,215,0.6,6.0,90,0.00,,,0.06,WeatherDisplay:10.37,2013-09-08 00:51:00,
2013-09-07 20:56:00,62.4,59.1,29.88,SW,220,1.0,6.0,89,0.00,,,0.06,WeatherDisplay:10.37,2013-09-08 00:56:00,
2013-09-07 21:01:00,62.5,59.5,29.89,SW,222,0.7,6.0,90,0.00,,,0.06,WeatherDisplay:10.37,2013-09-08 01:01:00,
2013-09-07 21:06:00,62.5,59.2,29.88,WSW,245,0.5,6.0,89,0.00,,,0.06,WeatherDisplay:10.37,2013-09-08 01:06:00,
2013-09-07 21:11:00,62.5,59.5,29.88,SSW,205,0.0,6.0,90,0.00,,,0.06,WeatherDisplay:10.37,2013-09-08 01:11:00,
2013-09-07 21:16:00,62.5,59.2,29.88,SSW,212,0.2,6.0,89,0.00,,,0.06,WeatherDisplay:10.37,2013-09-08 01:16:00,
2013-09-07 21:21:00,62.4,59.1,29.88,West,259,1.6,6.0,89,0.00,,,0.06,WeatherDisplay:10.37,2013-09-08 01:21:00,
2013-09-07 21:26:00,62.4,59.4,29.88,SW,217,0.5,6.0,90,0.00,,,0.06,WeatherDisplay:10.37,2013-09-08 01:26:00,
2013-09-07 21:31:00,62.3,59.3,29.88,West,263,1.3,6.0,90,0.00,,,0.06,WeatherDisplay:10.37,2013-09-08 01:31:00,
2013-09-07 21:36:00,62.2,59.2,29.88,SW,226,0.1,6.0,90,0.00,,,0.06,WeatherDisplay:10.37,2013-09-08 01:36:00,
2013-09-07 21:41:00,62.1,59.1,29.88,WSW,246,0.0,6.0,90,0.00,,,0.06,WeatherDisplay:10.37,2013-09-08 01:41:00,
2013-09-07 21:46:00,62.0,59.3,29.88,SW,235,0.2,6.0,91,0.00,,,0.06,WeatherDisplay:10.37,2013-09-08 01:46:00,
2013-09-07 21:51:00,61.9,59.2,29.88,SW,235,0.0,6.0,91,0.00,,,0.06,WeatherDisplay:10.37,2013-09-08 01:51:00,
2013-09-07 21:56:00,61.8,59.1,29.87,SW,235,0.3,6.0,91,0.00,,,0.06,WeatherDisplay:10.37,2013-09-08 01:56:00,
2013-09-07 22:01:00,61.8,59.1,29.87,SW,227,0.3,6.0,91,0.00,,,0.06,WeatherDisplay:10.37,2013-09-08 02:01:00,
2013-09-07 22:06:00,61.7,59.0,29.87,SSW,208,0.0,6.0,91,0.00,,,0.06,WeatherDisplay:10.37,2013-09-08 02:06:00,
2013-09-07 22:11:00,61.7,59.0,29.87,SSW,208,0.0,6.0,91,0.00,,,0.06,WeatherDisplay:10.37,2013-09-08 02:11:00,
2013-09-07 22:16:00,61.7,59.0,29.87,SSE,160,0.0,6.0,91,0.00,,,0.06,WeatherDisplay:10.37,2013-09-08 02:16:00,
2013-09-07 22:21:00,61.6,58.9,29.87,SW,222,0.0,6.0,91,0.00,,,0.06,WeatherDisplay:10.37,2013-09-08 02:21:00,
2013-09-07 22:26:00,61.5,58.8,29.87,SW,222,0.0,6.0,91,0.00,,,0.06,WeatherDisplay:10.37,2013-09-08 02:26:00,
2013-09-07 22:31:00,61.5,59.2,29.87,SSW,207,0.2,6.0,92,0.00,,,0.06,WeatherDisplay:10.37,2013-09-08 02:31:00,
2013-09-07 22:36:00,61.5,58.8,29.87,SW,218,0.0,6.0,91,0.00,,,0.06,WeatherDisplay:10.37,2013-09-08 02:36:00,
2013-09-07 22:41:00,61.5,59.2,29.87,SW,218,0.1,6.0,92,0.00,,,0.06,WeatherDisplay:10.37,2013-09-08 02:41:00,
2013-09-07 22:46:00,61.6,59.3,29.87,SW,233,0.1,6.0,92,0.00,,,0.06,WeatherDisplay:10.37,2013-09-08 02:46:00,
2013-09-07 22:51:00,61.6,59.3,29.87,South,169,0.0,6.0,92,0.00,,,0.06,WeatherDisplay:10.37,2013-09-08 02:51:00,
2013-09-07 22:56:00,61.7,59.0,29.87,West,264,1.5,6.0,91,0.00,,,0.06,WeatherDisplay:10.37,2013-09-08 02:56:00,
2013-09-07 23:01:00,61.7,59.0,29.87,SW,229,0.4,6.0,91,0.00,,,0.06,WeatherDisplay:10.37,2013-09-08 03:01:00,
2013-09-07 23:06:00,61.8,59.1,29.87,SE,142,0.0,6.0,91,0.00,,,0.06,WeatherDisplay:10.37,2013-09-08 03:06:00,
2013-09-07 23:11:00,61.8,59.1,29.86,SW,228,0.8,6.0,91,0.00,,,0.06,WeatherDisplay:10.37,2013-09-08 03:11:00,
2013-09-07 23:16:00,61.9,59.2,29.86,WSW,239,0.4,6.0,91,0.00,,,0.06,WeatherDisplay:10.37,2013-09-08 03:16:00,
2013-09-07 23:21:00,61.9,59.2,29.86,SSW,211,0.0,6.0,91,0.00,,,0.06,WeatherDisplay:10.37,2013-09-08 03:21:00,
2013-09-07 23:26:00,62.0,59.3,29.86,SW,219,0.3,6.0,91,0.00,,,0.06,WeatherDisplay:10.37,2013-09-08 03:26:00,
2013-09-07 23:31:00,62.1,59.4,29.86,WSW,256,0.3,6.0,91,0.00,,,0.06,WeatherDisplay:10.37,2013-09-08 03:31:00,
2013-09-07 23:36:00,62.1,59.4,29.86,East,92,0.3,6.0,91,0.00,,,0.06,WeatherDisplay:10.37,2013-09-08 03:36:00,
2013-09-07 23:41:00,62.2,59.5,29.86,SW,229,0.1,6.0,91,0.00,,,0.06,WeatherDisplay:10.37,2013-09-08 03:41:00,
2013-09-07 23:46:00,62.3,59.6,29.85,SW,232,0.0,6.0,91,0.00,,,0.06,WeatherDisplay:10.37,2013-09-08 03:46:00,
2013-09-07 23:51:00,62.3,59.6,29.85,West,278,0.0,0.0,91,0.00,CLR,,0.06,WeatherDisplay:10.37,2013-09-08 03:51:00,
2013-09-07 23:56:00,62.4,59.7,29.85,SW,222,0.0,2.3,91,0.00,RA,,0.06,WeatherDisplay:10.37,2013-09-08 03:56:00,